| time (UTC) | temp F | wind direction | speed MPH | gust MPH | rain 1hr in | rain 24hr in | rain mn in | humidity % | barometer mb |
| 20260510174554 | 69 | 306 | 5.0 | 11.0 | 0.00 | 0.24 | 0.00 | 61 | 1011.3 |
| 20260510174041 | 70 | 185 | 4.0 | 11.0 | 0.00 | 0.24 | 0.00 | 64 | 1011.4 |
| 20260510173542 | 71 | 272 | 3.0 | 11.0 | 0.00 | 0.24 | 0.00 | 67 | 1011.3 |
| 20260510173053 | 71 | 164 | 2.0 | 10.0 | 0.00 | 0.24 | 0.00 | 68 | 1011.3 |
| 20260510172543 | 71 | 254 | 4.0 | 10.0 | 0.00 | 0.24 | 0.00 | 66 | 1011.4 |
| 20260510172039 | 71 | 254 | 3.0 | 10.0 | 0.00 | 0.24 | 0.00 | 71 | 1011.6 |
| 20260510171548 | 69 | 281 | 3.0 | 8.0 | 0.00 | 0.24 | 0.00 | 75 | 1011.5 |
| 20260510171039 | 67 | 158 | 3.0 | 7.0 | 0.00 | 0.24 | 0.00 | 71 | 1011.5 |
| 20260510170538 | 69 | 171 | 0.0 | 6.0 | 0.00 | 0.24 | 0.00 | 73 | 1011.6 |
| 20260510170048 | 69 | 0 | 1.0 | 8.0 | 0.00 | 0.24 | 0.00 | 76 | 1011.7 |
| 20260510165540 | 68 | 309 | 3.0 | 8.0 | 0.00 | 0.26 | 0.00 | 75 | 1011.7 |
| 20260510165038 | 69 | 202 | 2.0 | 8.0 | 0.00 | 0.26 | 0.00 | 73 | 1011.7 |
| 20260510164553 | 69 | 259 | 2.0 | 9.0 | 0.00 | 0.26 | 0.00 | 74 | 1011.6 |
| 20260510164037 | 68 | 263 | 3.0 | 9.0 | 0.00 | 0.26 | 0.00 | 78 | 1011.6 |
| 20260510163538 | 67 | 180 | 3.0 | 8.0 | 0.00 | 0.26 | 0.00 | 74 | 1011.6 |
| 20260510163045 | 67 | 206 | 4.0 | 8.0 | 0.00 | 0.26 | 0.00 | 73 | 1011.8 |
| 20260510162536 | 67 | 159 | 3.0 | 8.0 | 0.00 | 0.26 | 0.00 | 78 | 1011.9 |
| 20260510162036 | 66 | 202 | 1.0 | 8.0 | 0.00 | 0.26 | 0.00 | 77 | 1011.8 |
| 20260510161551 | 67 | 267 | 2.0 | 9.0 | 0.00 | 0.26 | 0.00 | 72 | 1011.9 |
| 20260510161039 | 68 | 0 | 2.0 | 9.0 | 0.00 | 0.26 | 0.00 | 78 | 1011.9 |
| 20260510160539 | 67 | 188 | 3.0 | 9.0 | 0.00 | 0.26 | 0.00 | 74 | 1011.9 |
| 20260510160049 | 69 | 178 | 1.0 | 9.0 | 0.00 | 0.26 | 0.00 | 75 | 1011.9 |
| 20260510155538 | 67 | 204 | 3.0 | 9.0 | 0.00 | 0.27 | 0.00 | 76 | 1011.9 |
| 20260510155037 | 67 | 196 | 3.0 | 9.0 | 0.00 | 0.27 | 0.00 | 74 | 1011.8 |
| 20260510154552 | 67 | 287 | 1.0 | 11.0 | 0.00 | 0.27 | 0.00 | 79 | 1011.9 |
| 20260510154040 | 66 | 200 | 4.0 | 11.0 | 0.00 | 0.27 | 0.00 | 76 | 1011.9 |
| 20260510153539 | 67 | 217 | 2.0 | 9.0 | 0.00 | 0.27 | 0.00 | 80 | 1011.9 |
| 20260510153048 | 66 | 178 | 5.0 | 9.0 | 0.00 | 0.27 | 0.00 | 79 | 1011.9 |
| 20260510152541 | 65 | 178 | 4.0 | 9.0 | 0.00 | 0.27 | 0.00 | 78 | 1011.9 |
| 20260510152037 | 64 | 180 | 4.0 | 10.0 | 0.00 | 0.27 | 0.00 | 79 | 1011.9 |
| 20260510151548 | 66 | 190 | 2.0 | 11.0 | 0.00 | 0.27 | 0.00 | 80 | 1011.9 |
| 20260510151039 | 65 | 148 | 3.0 | 11.0 | 0.00 | 0.27 | 0.00 | 82 | 1011.8 |
| 20260510150541 | 64 | 169 | 4.0 | 10.0 | 0.00 | 0.27 | 0.00 | 78 | 1011.8 |
| 20260510150119 | 65 | 184 | 2.0 | 11.0 | 0.00 | 0.27 | 0.00 | 82 | 1011.9 |
| 20260510145538 | 64 | 153 | 3.0 | 11.0 | 0.00 | 0.27 | 0.00 | 79 | 1011.8 |
| 20260510145040 | 64 | 161 | 3.0 | 10.0 | 0.00 | 0.27 | 0.00 | 80 | 1011.6 |
| 20260510144606 | 65 | 184 | 1.0 | 10.0 | 0.00 | 0.27 | 0.00 | 81 | 1011.8 |
| 20260510144040 | 63 | 178 | 4.0 | 11.0 | 0.00 | 0.27 | 0.00 | 83 | 1011.8 |
| 20260510143538 | 63 | 270 | 4.0 | 11.0 | 0.00 | 0.27 | 0.00 | 81 | 1011.8 |
| 20260510143045 | 64 | 225 | 3.0 | 9.0 | 0.00 | 0.27 | 0.00 | 81 | 1011.8 |
| 20260510142538 | 64 | 271 | 2.0 | 9.0 | 0.00 | 0.27 | 0.00 | 84 | 1011.7 |
| 20260510142039 | 63 | 225 | 3.0 | 9.0 | 0.00 | 0.27 | 0.00 | 82 | 1011.7 |
| 20260510141544 | 63 | 191 | 3.0 | 8.0 | 0.00 | 0.27 | 0.00 | 83 | 1011.6 |
| 20260510141039 | 63 | 0 | 2.0 | 8.0 | 0.00 | 0.27 | 0.00 | 85 | 1011.5 |
| 20260510140540 | 63 | 185 | 2.0 | 8.0 | 0.00 | 0.27 | 0.00 | 82 | 1011.5 |
| 20260510140046 | 61 | 162 | 3.0 | 8.0 | 0.00 | 0.27 | 0.00 | 84 | 1011.6 |
| 20260510135538 | 61 | 202 | 4.0 | 9.0 | 0.00 | 0.27 | 0.00 | 83 | 1011.6 |
| 20260510135037 | 61 | 261 | 3.0 | 9.0 | 0.00 | 0.27 | 0.00 | 87 | 1011.5 |
| 20260510134549 | 60 | 172 | 4.0 | 10.0 | 0.00 | 0.27 | 0.00 | 86 | 1011.6 |
| 20260510134038 | 61 | 199 | 3.0 | 11.0 | 0.00 | 0.27 | 0.00 | 90 | 1011.7 |
| 20260510133537 | 59 | 250 | 3.0 | 11.0 | 0.00 | 0.27 | 0.00 | 89 | 1011.8 |
| 20260510133047 | 59 | 190 | 3.0 | 7.0 | 0.00 | 0.27 | 0.00 | 90 | 1011.7 |
| 20260510132539 | 59 | 194 | 0.0 | 6.0 | 0.00 | 0.27 | 0.00 | 91 | 1011.8 |
| 20260510132039 | 59 | 261 | 1.0 | 7.0 | 0.00 | 0.27 | 0.00 | 92 | 1011.9 |
| 20260510131547 | 57 | 234 | 2.0 | 7.0 | 0.00 | 0.27 | 0.00 | 93 | 1011.9 |
| 20260510131038 | 58 | 269 | 2.0 | 6.0 | 0.00 | 0.27 | 0.00 | 92 | 1011.8 |
| 20260510130539 | 58 | 267 | 1.0 | 6.0 | 0.00 | 0.27 | 0.00 | 94 | 1011.8 |
| 20260510130048 | 57 | 195 | 1.0 | 7.0 | 0.00 | 0.27 | 0.00 | 96 | 1011.9 |
| 20260510125537 | 56 | 161 | 2.0 | 8.0 | 0.00 | 0.28 | 0.00 | 98 | 1011.9 |
| 20260510125038 | 55 | 148 | 2.0 | 8.0 | 0.00 | 0.28 | 0.00 | 98 | 1011.8 |
| 20260510124549 | 54 | 179 | 3.0 | 8.0 | 0.00 | 0.28 | 0.00 | 97 | 1011.7 |
| 20260510124037 | 54 | 144 | 1.0 | 6.0 | 0.00 | 0.28 | 0.00 | 98 | 1011.8 |
| 20260510123537 | 54 | 183 | 2.0 | 5.0 | 0.00 | 0.28 | 0.00 | 98 | 1011.8 |
| 20260510123045 | 53 | 201 | 1.0 | 3.0 | 0.00 | 0.28 | 0.00 | 98 | 1011.8 |
| 20260510122539 | 52 | 208 | 0.0 | 0.0 | 0.00 | 0.28 | 0.00 | 98 | 1011.6 |
| 20260510122038 | 51 | 0 | 0.0 | 0.0 | 0.00 | 0.28 | 0.00 | 98 | 1011.6 |
| 20260510121553 | 51 | 0 | 0.0 | 2.0 | 0.00 | 0.28 | 0.00 | 98 | 1011.6 |
| 20260510121038 | 51 | 0 | 0.0 | 2.0 | 0.00 | 0.28 | 0.00 | 97 | 1011.6 |
| 20260510120538 | 51 | 196 | 0.0 | 1.0 | 0.00 | 0.28 | 0.00 | 97 | 1011.5 |
| 20260510120051 | 51 | 0 | 0.0 | 1.0 | 0.00 | 0.28 | 0.00 | 97 | 1011.5 |
| 20260510115539 | 51 | 0 | 0.0 | 1.0 | 0.00 | 0.29 | 0.00 | 97 | 1011.5 |
| 20260510115039 | 50 | 0 | 0.0 | 1.0 | 0.00 | 0.29 | 0.00 | 97 | 1011.5 |
| 20260510114606 | 50 | 0 | 0.0 | 0.0 | 0.00 | 0.29 | 0.00 | 97 | 1011.4 |
| 20260510114035 | 50 | 0 | 0.0 | 2.0 | 0.00 | 0.29 | 0.00 | 97 | 1011.4 |
| 20260510113538 | 50 | 0 | 0.0 | 2.0 | 0.00 | 0.29 | 0.00 | 97 | 1011.3 |
| 20260510113054 | 50 | 202 | 0.0 | 2.0 | 0.00 | 0.29 | 0.00 | 97 | 1011.3 |
| 20260510112537 | 50 | 0 | 0.0 | 0.0 | 0.00 | 0.29 | 0.00 | 97 | 1011.3 |
| 20260510112037 | 50 | 0 | 0.0 | 0.0 | 0.00 | 0.29 | 0.00 | 98 | 1011.4 |
| 20260510111546 | 50 | 0 | 0.0 | 0.0 | 0.00 | 0.29 | 0.00 | 98 | 1011.2 |
| 20260510111036 | 50 | 0 | 0.0 | 0.0 | 0.00 | 0.29 | 0.00 | 97 | 1011.2 |
| 20260510110541 | 50 | 0 | 0.0 | 0.0 | 0.00 | 0.29 | 0.00 | 97 | 1011.2 |
| 20260510110049 | 50 | 0 | 0.0 | 0.0 | 0.00 | 0.29 | 0.00 | 97 | 1011.1 |
| 20260510105541 | 50 | 0 | 0.0 | 1.0 | 0.00 | 0.30 | 0.00 | 97 | 1011.3 |
| 20260510105038 | 50 | 0 | 0.0 | 1.0 | 0.00 | 0.30 | 0.00 | 97 | 1011.1 |
| 20260510104555 | 50 | 0 | 0.0 | 1.0 | 0.00 | 0.30 | 0.00 | 97 | 1011.0 |
| 20260510104039 | 50 | 0 | 0.0 | 0.0 | 0.00 | 0.30 | 0.00 | 97 | 1011.0 |
| 20260510103539 | 50 | 0 | 0.0 | 1.0 | 0.00 | 0.30 | 0.00 | 97 | 1010.8 |
| 20260510103049 | 50 | 0 | 0.0 | 2.0 | 0.00 | 0.30 | 0.00 | 97 | 1010.8 |
| 20260510102536 | 50 | 0 | 0.0 | 3.0 | 0.00 | 0.30 | 0.00 | 97 | 1010.8 |
| 20260510102039 | 50 | 156 | 0.0 | 3.0 | 0.00 | 0.30 | 0.00 | 97 | 1010.8 |
| 20260510101548 | 50 | 136 | 0.0 | 3.0 | 0.00 | 0.30 | 0.00 | 97 | 1010.7 |
| 20260510101039 | 50 | 0 | 1.0 | 3.0 | 0.00 | 0.30 | 0.00 | 97 | 1010.6 |
| 20260510100538 | 49 | 193 | 0.0 | 2.0 | 0.00 | 0.30 | 0.00 | 97 | 1010.8 |
| 20260510100058 | 49 | 0 | 0.0 | 2.0 | 0.00 | 0.30 | 0.00 | 97 | 1010.7 |
| 20260510095538 | 49 | 0 | 0.0 | 3.0 | 0.00 | 0.33 | 0.00 | 97 | 1010.7 |
| 20260510095038 | 49 | 179 | 1.0 | 4.0 | 0.00 | 0.33 | 0.00 | 97 | 1010.5 |
| 20260510094552 | 49 | 142 | 1.0 | 5.0 | 0.00 | 0.33 | 0.00 | 97 | 1010.2 |
| 20260510094038 | 49 | 173 | 1.0 | 5.0 | 0.00 | 0.33 | 0.00 | 97 | 1010.4 |
| 20260510093538 | 49 | 0 | 1.0 | 5.0 | 0.00 | 0.33 | 0.00 | 97 | 1010.4 |
| 20260510093045 | 49 | 0 | 0.0 | 3.0 | 0.00 | 0.33 | 0.00 | 97 | 1010.3 |
| 20260510092539 | 49 | 201 | 0.0 | 3.0 | 0.00 | 0.33 | 0.00 | 97 | 1010.3 |
| 20260510092038 | 49 | 0 | 0.0 | 3.0 | 0.00 | 0.33 | 0.00 | 97 | 1010.2 |
| 20260510091544 | 49 | 0 | 0.0 | 5.0 | 0.00 | 0.33 | 0.00 | 97 | 1010.0 |
| 20260510091039 | 49 | 0 | 0.0 | 5.0 | 0.00 | 0.33 | 0.00 | 97 | 1009.9 |
| 20260510090543 | 49 | 157 | 0.0 | 2.0 | 0.00 | 0.33 | 0.00 | 97 | 1010.0 |
| 20260510090043 | 49 | 0 | 0.0 | 3.0 | 0.00 | 0.33 | 0.00 | 97 | 1010.1 |
| 20260510085539 | 49 | 0 | 0.0 | 3.0 | 0.00 | 0.35 | 0.00 | 97 | 1009.9 |
| 20260510085038 | 49 | 0 | 1.0 | 3.0 | 0.00 | 0.35 | 0.00 | 97 | 1009.8 |
| 20260510084548 | 49 | 79 | 1.0 | 2.0 | 0.00 | 0.35 | 0.00 | 97 | 1010.0 |
| 20260510084037 | 49 | 0 | 0.0 | 1.0 | 0.00 | 0.35 | 0.00 | 97 | 1010.2 |
| 20260510083536 | 49 | 0 | 0.0 | 1.0 | 0.00 | 0.35 | 0.00 | 97 | 1010.2 |
| 20260510083048 | 49 | 0 | 0.0 | 2.0 | 0.00 | 0.35 | 0.00 | 97 | 1010.2 |
| 20260510082540 | 49 | 0 | 0.0 | 2.0 | 0.00 | 0.35 | 0.00 | 97 | 1010.2 |
| 20260510082038 | 49 | 0 | 0.0 | 2.0 | 0.00 | 0.35 | 0.00 | 97 | 1010.3 |
| 20260510081546 | 49 | 96 | 0.0 | 2.0 | 0.00 | 0.35 | 0.00 | 97 | 1010.3 |
| 20260510081038 | 49 | 0 | 0.0 | 2.0 | 0.00 | 0.35 | 0.00 | 97 | 1010.6 |
| 20260510080539 | 49 | 117 | 0.0 | 2.0 | 0.00 | 0.35 | 0.00 | 97 | 1010.6 |
| 20260510080050 | 49 | 0 | 0.0 | 3.0 | 0.00 | 0.35 | 0.00 | 97 | 1010.6 |
| 20260510075538 | 49 | 0 | 0.0 | 4.0 | 0.00 | 0.38 | 0.00 | 97 | 1010.7 |
| 20260510075036 | 50 | 144 | 1.0 | 4.0 | 0.00 | 0.38 | 0.00 | 97 | 1010.7 |
| 20260510074544 | 50 | 142 | 1.0 | 5.0 | 0.00 | 0.38 | 0.00 | 97 | 1010.7 |
| 20260510074039 | 50 | 0 | 1.0 | 5.0 | 0.00 | 0.38 | 0.00 | 97 | 1010.8 |
| 20260510073539 | 50 | 171 | 1.0 | 5.0 | 0.00 | 0.38 | 0.00 | 97 | 1010.7 |
| 20260510073044 | 50 | 155 | 1.0 | 5.0 | 0.00 | 0.38 | 0.00 | 97 | 1010.8 |
| 20260510072539 | 50 | 125 | 2.0 | 4.0 | 0.00 | 0.38 | 0.00 | 97 | 1011.0 |
| 20260510072043 | 51 | 154 | 1.0 | 6.0 | 0.00 | 0.38 | 0.00 | 97 | 1011.0 |
| 20260510071548 | 51 | 156 | 2.0 | 6.0 | 0.00 | 0.38 | 0.00 | 97 | 1011.0 |
| 20260510071038 | 51 | 146 | 1.0 | 3.0 | 0.00 | 0.38 | 0.00 | 97 | 1011.1 |
| 20260510070538 | 50 | 0 | 0.0 | 3.0 | 0.00 | 0.38 | 0.00 | 97 | 1011.2 |
| 20260510070105 | 50 | 0 | 0.0 | 3.0 | 0.00 | 0.38 | 0.00 | 97 | 1011.0 |
| 20260510065540 | 50 | 220 | 0.0 | 2.0 | 0.00 | 0.38 | 0.00 | 97 | 1011.1 |
| 20260510065038 | 50 | 0 | 0.0 | 2.0 | 0.00 | 0.38 | 0.00 | 97 | 1011.1 |
| 20260510064552 | 50 | 344 | 0.0 | 2.0 | 0.00 | 0.38 | 0.00 | 97 | 1011.1 |
| 20260510064039 | 50 | 0 | 0.0 | 2.0 | 0.00 | 0.38 | 0.00 | 97 | 1010.7 |
| 20260510063538 | 50 | 0 | 0.0 | 1.0 | 0.00 | 0.38 | 0.00 | 97 | 1010.7 |
| 20260510063048 | 50 | 0 | 0.0 | 1.0 | 0.00 | 0.38 | 0.00 | 97 | 1010.4 |
| 20260510062536 | 50 | 0 | 0.0 | 1.0 | 0.00 | 0.38 | 0.00 | 97 | 1010.5 |
| 20260510062039 | 49 | 0 | 0.0 | 0.0 | 0.00 | 0.38 | 0.00 | 97 | 1010.5 |
| 20260510061551 | 49 | 0 | 0.0 | 0.0 | 0.00 | 0.38 | 0.00 | 97 | 1010.5 |
| 20260510061039 | 49 | 0 | 0.0 | 0.0 | 0.00 | 0.38 | 0.00 | 97 | 1010.5 |
| 20260510060539 | 49 | 0 | 0.0 | 3.0 | 0.00 | 0.38 | 0.00 | 97 | 1010.6 |
| 20260510060043 | 49 | 0 | 0.0 | 3.0 | 0.00 | 0.38 | 0.00 | 97 | 1010.4 |
| 20260510055536 | 49 | 59 | 0.0 | 3.0 | 0.00 | 0.38 | 0.00 | 97 | 1010.5 |
| 20260510055036 | 48 | 0 | 0.0 | 0.0 | 0.00 | 0.38 | 0.00 | 97 | 1010.6 |
| 20260510054553 | 48 | 0 | 0.0 | 0.0 | 0.00 | 0.38 | 0.00 | 97 | 1010.6 |
| 20260510054037 | 48 | 0 | 0.0 | 1.0 | 0.00 | 0.38 | 0.00 | 97 | 1010.6 |
| 20260510053539 | 48 | 0 | 0.0 | 1.0 | 0.00 | 0.38 | 0.00 | 97 | 1010.7 |
| 20260510053047 | 47 | 0 | 0.0 | 1.0 | 0.00 | 0.38 | 0.00 | 97 | 1010.6 |
| 20260510052536 | 47 | 0 | 0.0 | 1.0 | 0.00 | 0.38 | 0.00 | 97 | 1010.7 |
| 20260510052038 | 46 | 0 | 0.0 | 0.0 | 0.00 | 0.38 | 0.00 | 96 | 1010.5 |
| 20260510051548 | 46 | 0 | 0.0 | 1.0 | 0.00 | 0.38 | 0.00 | 97 | 1010.5 |
| 20260510051039 | 46 | 0 | 0.0 | 1.0 | 0.00 | 0.38 | 0.00 | 97 | 1010.3 |
| 20260510050542 | 46 | 0 | 0.0 | 1.0 | 0.00 | 0.38 | 0.00 | 96 | 1010.3 |
| 20260510050045 | 46 | 0 | 0.0 | 1.0 | 0.00 | 0.38 | 0.00 | 96 | 1010.3 |
| 20260510045539 | 46 | 0 | 0.0 | 1.0 | 0.00 | 0.38 | 0.00 | 96 | 1010.3 |
| 20260510045038 | 46 | 0 | 0.0 | 1.0 | 0.00 | 0.38 | 0.00 | 96 | 1010.3 |
| 20260510044553 | 46 | 0 | 0.0 | 1.0 | 0.00 | 0.38 | 0.00 | 96 | 1010.4 |
| 20260510044040 | 47 | 0 | 0.0 | 1.0 | 0.00 | 0.38 | 0.00 | 96 | 1010.4 |
| 20260510043539 | 46 | 0 | 0.0 | 1.0 | 0.00 | 0.38 | 0.00 | 96 | 1010.3 |
| 20260510043045 | 46 | 0 | 0.0 | 0.0 | 0.00 | 0.38 | 0.00 | 96 | 1010.4 |
| 20260510042539 | 46 | 0 | 0.0 | 0.0 | 0.00 | 0.38 | 0.00 | 96 | 1010.4 |
| 20260510042041 | 47 | 0 | 0.0 | 0.0 | 0.00 | 0.38 | 0.00 | 96 | 1010.2 |
| 20260510041553 | 47 | 0 | 0.0 | 0.0 | 0.00 | 0.38 | 0.00 | 96 | 1010.2 |
| 20260510041037 | 47 | 0 | 0.0 | 0.0 | 0.00 | 0.38 | 0.00 | 96 | 1010.3 |
| 20260510040542 | 47 | 0 | 0.0 | 0.0 | 0.00 | 0.38 | 0.00 | 96 | 1010.3 |
| 20260510040049 | 47 | 0 | 0.0 | 0.0 | 0.00 | 0.38 | 0.00 | 96 | 1010.3 |
| 20260510035538 | 47 | 0 | 0.0 | 1.0 | 0.00 | 0.38 | 0.38 | 96 | 1010.3 |
| 20260510035036 | 47 | 0 | 0.0 | 1.0 | 0.00 | 0.38 | 0.38 | 96 | 1010.3 |
| 20260510034550 | 47 | 0 | 0.0 | 2.0 | 0.00 | 0.38 | 0.38 | 96 | 1010.4 |
| 20260510034040 | 47 | 344 | 1.0 | 2.0 | 0.00 | 0.38 | 0.38 | 95 | 1010.4 |
| 20260510033537 | 47 | 0 | 0.0 | 2.0 | 0.00 | 0.38 | 0.38 | 96 | 1010.3 |
| 20260510033103 | 47 | 46 | 1.0 | 2.0 | 0.00 | 0.38 | 0.38 | 96 | 1010.3 |
| 20260510032540 | 46 | 0 | 0.0 | 2.0 | 0.00 | 0.38 | 0.38 | 96 | 1010.5 |
| 20260510032039 | 46 | 0 | 0.0 | 2.0 | 0.00 | 0.38 | 0.38 | 96 | 1010.4 |
| 20260510031544 | 46 | 0 | 0.0 | 1.0 | 0.00 | 0.38 | 0.38 | 95 | 1010.4 |
| 20260510031038 | 46 | 0 | 0.0 | 1.0 | 0.00 | 0.38 | 0.38 | 95 | 1010.5 |
| 20260510030539 | 46 | 0 | 0.0 | 0.0 | 0.00 | 0.38 | 0.38 | 95 | 1010.6 |
| 20260510030043 | 46 | 0 | 0.0 | 0.0 | 0.00 | 0.38 | 0.38 | 95 | 1010.5 |
| 20260510025537 | 47 | 0 | 0.0 | 0.0 | 0.00 | 0.38 | 0.38 | 95 | 1010.3 |
| 20260510025037 | 47 | 0 | 0.0 | 0.0 | 0.00 | 0.38 | 0.38 | 95 | 1010.2 |
| 20260510024549 | 48 | 0 | 0.0 | 1.0 | 0.00 | 0.38 | 0.38 | 95 | 1010.3 |
| 20260510024035 | 48 | 0 | 0.0 | 1.0 | 0.00 | 0.38 | 0.38 | 95 | 1010.3 |
| 20260510023536 | 48 | 0 | 0.0 | 0.0 | 0.00 | 0.38 | 0.38 | 95 | 1010.3 |
| 20260510023043 | 48 | 0 | 0.0 | 0.0 | 0.00 | 0.38 | 0.38 | 95 | 1010.2 |
| 20260510022539 | 48 | 0 | 0.0 | 0.0 | 0.00 | 0.38 | 0.38 | 95 | 1010.2 |
| 20260510022039 | 48 | 0 | 0.0 | 0.0 | 0.00 | 0.38 | 0.38 | 95 | 1010.2 |
| 20260510021551 | 48 | 0 | 0.0 | 0.0 | 0.00 | 0.38 | 0.38 | 95 | 1010.2 |
| 20260510021036 | 48 | 0 | 0.0 | 0.0 | 0.00 | 0.38 | 0.38 | 95 | 1010.3 |
| 20260510020536 | 49 | 0 | 0.0 | 0.0 | 0.00 | 0.38 | 0.38 | 95 | 1010.2 |
| 20260510020047 | 49 | 0 | 0.0 | 0.0 | 0.00 | 0.38 | 0.38 | 95 | 1010.4 |
| 20260510015539 | 49 | 0 | 0.0 | 0.0 | 0.00 | 0.38 | 0.38 | 95 | 1010.5 |
| 20260510015043 | 49 | 0 | 0.0 | 0.0 | 0.00 | 0.38 | 0.38 | 95 | 1010.5 |
| 20260510014600 | 49 | 0 | 0.0 | 1.0 | 0.00 | 0.38 | 0.38 | 94 | 1010.5 |
| 20260510014039 | 49 | 0 | 0.0 | 1.0 | 0.00 | 0.38 | 0.38 | 94 | 1010.3 |
| 20260510013539 | 49 | 0 | 0.0 | 1.0 | 0.00 | 0.38 | 0.38 | 94 | 1010.2 |
| 20260510013056 | 49 | 0 | 0.0 | 1.0 | 0.00 | 0.38 | 0.38 | 94 | 1010.1 |
| 20260510012539 | 50 | 0 | 0.0 | 1.0 | 0.00 | 0.38 | 0.38 | 94 | 1010.1 |
| 20260510012043 | 50 | 0 | 0.0 | 1.0 | 0.00 | 0.38 | 0.38 | 94 | 1010.0 |
| 20260510011549 | 50 | 0 | 0.0 | 1.0 | 0.00 | 0.38 | 0.38 | 94 | 1010.1 |
| 20260510011038 | 50 | 0 | 0.0 | 0.0 | 0.00 | 0.38 | 0.38 | 94 | 1010.0 |
| 20260510010535 | 50 | 0 | 0.0 | 1.0 | 0.00 | 0.38 | 0.38 | 94 | 1010.1 |
| 20260510010056 | 50 | 0 | 0.0 | 1.0 | 0.00 | 0.38 | 0.38 | 94 | 1010.3 |
| 20260510005537 | 50 | 0 | 0.0 | 0.0 | 0.00 | 0.38 | 0.38 | 94 | 1010.1 |
| 20260510005038 | 50 | 0 | 0.0 | 1.0 | 0.00 | 0.38 | 0.38 | 93 | 1010.1 |
| 20260510004551 | 50 | 0 | 0.0 | 2.0 | 0.00 | 0.38 | 0.38 | 93 | 1009.9 |
| 20260510004039 | 51 | 336 | 0.0 | 2.0 | 0.00 | 0.38 | 0.38 | 93 | 1009.8 |
| 20260510003539 | 51 | 0 | 0.0 | 2.0 | 0.00 | 0.38 | 0.38 | 93 | 1009.6 |
| 20260510003058 | 51 | 0 | 0.0 | 2.0 | 0.00 | 0.38 | 0.38 | 92 | 1009.5 |
| 20260510002538 | 52 | 336 | 0.0 | 2.0 | 0.00 | 0.38 | 0.38 | 92 | 1009.5 |
| 20260510002036 | 52 | 296 | 0.0 | 1.0 | 0.00 | 0.38 | 0.38 | 92 | 1009.4 |
| 20260510001546 | 52 | 0 | 0.0 | 2.0 | 0.00 | 0.38 | 0.38 | 92 | 1009.4 |
| 20260510001038 | 53 | 259 | 0.0 | 4.0 | 0.00 | 0.38 | 0.38 | 92 | 1009.3 |
| 20260510000539 | 53 | 0 | 1.0 | 5.0 | 0.00 | 0.38 | 0.38 | 92 | 1009.2 |
| 20260510000054 | 53 | 119 | 0.0 | 5.0 | 0.00 | 0.38 | 0.38 | 92 | 1009.1 |
| 20260509235543 | 53 | 167 | 1.0 | 8.0 | 0.00 | 0.38 | 0.38 | 92 | 1009.0 |
| 20260509235038 | 54 | 164 | 2.0 | 8.0 | 0.00 | 0.38 | 0.38 | 92 | 1008.9 |
| 20260509234604 | 54 | 157 | 3.0 | 7.0 | 0.00 | 0.38 | 0.38 | 92 | 1008.9 |
| 20260509234040 | 54 | 152 | 3.0 | 7.0 | 0.00 | 0.38 | 0.38 | 92 | 1008.9 |
| 20260509233542 | 54 | 163 | 2.0 | 7.0 | 0.00 | 0.38 | 0.38 | 92 | 1009.0 |
| 20260509233047 | 54 | 171 | 2.0 | 7.0 | 0.00 | 0.38 | 0.38 | 92 | 1009.0 |
| 20260509232538 | 54 | 175 | 1.0 | 5.0 | 0.00 | 0.38 | 0.38 | 92 | 1009.0 |
| 20260509232040 | 54 | 158 | 1.0 | 4.0 | 0.00 | 0.38 | 0.38 | 92 | 1009.1 |
| 20260509231545 | 54 | 157 | 0.0 | 2.0 | 0.00 | 0.38 | 0.38 | 93 | 1009.2 |
| 20260509231038 | 54 | 0 | 0.0 | 4.0 | 0.00 | 0.38 | 0.38 | 93 | 1009.1 |
| 20260509230538 | 54 | 0 | 0.0 | 5.0 | 0.00 | 0.38 | 0.38 | 93 | 1009.2 |
| 20260509230044 | 54 | 0 | 1.0 | 7.0 | 0.00 | 0.38 | 0.38 | 93 | 1009.0 |
| 20260509225544 | 54 | 157 | 3.0 | 8.0 | 0.00 | 0.38 | 0.38 | 93 | 1009.1 |
| 20260509225039 | 54 | 198 | 2.0 | 8.0 | 0.00 | 0.38 | 0.38 | 94 | 1009.1 |
| 20260509224540 | 54 | 151 | 1.0 | 6.0 | 0.00 | 0.38 | 0.38 | 94 | 1009.2 |
| 20260509224039 | 54 | 200 | 2.0 | 6.0 | 0.00 | 0.38 | 0.38 | 93 | 1009.1 |
| 20260509223539 | 53 | 144 | 1.0 | 6.0 | 0.00 | 0.38 | 0.38 | 94 | 1009.1 |
| 20260509223056 | 53 | 167 | 2.0 | 6.0 | 0.00 | 0.38 | 0.38 | 94 | 1009.2 |
| 20260509222538 | 53 | 137 | 2.0 | 5.0 | 0.00 | 0.38 | 0.38 | 94 | 1009.1 |
| 20260509222039 | 53 | 144 | 1.0 | 5.0 | 0.00 | 0.38 | 0.38 | 94 | 1009.3 |
| 20260509221550 | 53 | 190 | 2.0 | 8.0 | 0.00 | 0.38 | 0.38 | 94 | 1009.4 |
| 20260509221039 | 53 | 177 | 2.0 | 8.0 | 0.00 | 0.38 | 0.38 | 94 | 1009.2 |
| 20260509220540 | 54 | 172 | 3.0 | 7.0 | 0.01 | 0.38 | 0.38 | 94 | 1009.3 |
| 20260509220058 | 53 | 153 | 3.0 | 7.0 | 0.01 | 0.38 | 0.38 | 94 | 1009.2 |
| 20260509215539 | 54 | 151 | 3.0 | 6.0 | 0.01 | 0.38 | 0.38 | 94 | 1009.4 |
| 20260509215043 | 54 | 145 | 2.0 | 5.0 | 0.02 | 0.38 | 0.38 | 94 | 1009.3 |
| 20260509214543 | 54 | 180 | 2.0 | 5.0 | 0.02 | 0.38 | 0.38 | 94 | 1009.3 |
| 20260509214039 | 54 | 157 | 1.0 | 5.0 | 0.03 | 0.38 | 0.38 | 94 | 1009.4 |
| 20260509213538 | 54 | 214 | 0.0 | 6.0 | 0.04 | 0.38 | 0.38 | 95 | 1009.5 |
| 20260509213045 | 53 | 175 | 2.0 | 6.0 | 0.05 | 0.38 | 0.38 | 94 | 1009.4 |
| 20260509212539 | 53 | 159 | 2.0 | 5.0 | 0.06 | 0.38 | 0.38 | 94 | 1009.4 |
| 20260509212039 | 53 | 171 | 2.0 | 5.0 | 0.07 | 0.38 | 0.38 | 94 | 1009.3 |
| 20260509211546 | 53 | 161 | 1.0 | 6.0 | 0.08 | 0.38 | 0.38 | 94 | 1009.4 |
| 20260509211039 | 53 | 160 | 1.0 | 6.0 | 0.09 | 0.38 | 0.38 | 94 | 1009.4 |
| 20260509210539 | 53 | 180 | 3.0 | 7.0 | 0.09 | 0.37 | 0.37 | 94 | 1009.5 |
| 20260509210048 | 53 | 186 | 3.0 | 7.0 | 0.11 | 0.37 | 0.37 | 94 | 1009.5 |
| 20260509205538 | 53 | 198 | 1.0 | 8.0 | 0.11 | 0.37 | 0.37 | 94 | 1009.6 |
| 20260509205039 | 53 | 166 | 2.0 | 8.0 | 0.11 | 0.36 | 0.36 | 94 | 1009.7 |
| 20260509204600 | 53 | 161 | 4.0 | 7.0 | 0.11 | 0.36 | 0.36 | 93 | 1009.9 |
| 20260509204039 | 53 | 167 | 3.0 | 8.0 | 0.11 | 0.35 | 0.35 | 93 | 1009.9 |
| 20260509203539 | 53 | 237 | 2.0 | 9.0 | 0.10 | 0.34 | 0.34 | 93 | 1010.0 |
| 20260509203045 | 53 | 161 | 4.0 | 9.0 | 0.09 | 0.33 | 0.33 | 93 | 1010.0 |
| 20260509202539 | 53 | 163 | 2.0 | 10.0 | 0.09 | 0.32 | 0.32 | 93 | 1010.1 |
| 20260509202040 | 53 | 171 | 3.0 | 10.0 | 0.08 | 0.31 | 0.31 | 93 | 1010.1 |
| 20260509201546 | 53 | 192 | 2.0 | 7.0 | 0.08 | 0.30 | 0.30 | 93 | 1010.2 |
| 20260509201040 | 53 | 180 | 1.0 | 10.0 | 0.07 | 0.29 | 0.29 | 93 | 1010.3 |
| 20260509200538 | 53 | 196 | 4.0 | 10.0 | 0.07 | 0.28 | 0.28 | 93 | 1010.2 |
| 20260509200053 | 53 | 194 | 4.0 | 14.0 | 0.05 | 0.26 | 0.26 | 93 | 1010.3 |
| 20260509195540 | 53 | 194 | 4.0 | 14.0 | 0.06 | 0.26 | 0.26 | 93 | 1010.3 |
| 20260509195042 | 54 | 197 | 3.0 | 9.0 | 0.05 | 0.25 | 0.25 | 93 | 1010.3 |
| 20260509194557 | 54 | 173 | 2.0 | 7.0 | 0.05 | 0.25 | 0.25 | 93 | 1010.5 |
| 20260509194040 | 54 | 223 | 2.0 | 8.0 | 0.05 | 0.24 | 0.24 | 93 | 1010.6 |
| 20260509193539 | 54 | 205 | 4.0 | 8.0 | 0.05 | 0.24 | 0.24 | 93 | 1010.7 |
| 20260509193051 | 55 | 159 | 1.0 | 5.0 | 0.05 | 0.24 | 0.24 | 93 | 1010.8 |
| 20260509192543 | 55 | 225 | 1.0 | 5.0 | 0.05 | 0.23 | 0.23 | 93 | 1011.0 |
| 20260509192039 | 55 | 217 | 1.0 | 6.0 | 0.05 | 0.23 | 0.23 | 93 | 1010.9 |
| 20260509191554 | 55 | 225 | 1.0 | 6.0 | 0.05 | 0.22 | 0.22 | 93 | 1010.9 |
| 20260509191042 | 55 | 247 | 2.0 | 7.0 | 0.05 | 0.22 | 0.22 | 93 | 1011.0 |
| 20260509190539 | 55 | 0 | 1.0 | 7.0 | 0.05 | 0.21 | 0.21 | 93 | 1010.9 |
| 20260509190052 | 55 | 179 | 1.0 | 5.0 | 0.05 | 0.21 | 0.21 | 93 | 1010.9 |
| 20260509185539 | 55 | 269 | 1.0 | 5.0 | 0.05 | 0.20 | 0.20 | 93 | 1010.9 |
| 20260509185039 | 56 | 205 | 1.0 | 5.0 | 0.05 | 0.20 | 0.20 | 93 | 1010.9 |
| 20260509184554 | 56 | 234 | 0.0 | 2.0 | 0.05 | 0.20 | 0.20 | 94 | 1010.8 |
| 20260509184039 | 56 | 0 | 0.0 | 4.0 | 0.04 | 0.19 | 0.19 | 94 | 1010.7 |
| 20260509183538 | 55 | 0 | 1.0 | 6.0 | 0.04 | 0.19 | 0.19 | 93 | 1010.8 |
| 20260509183048 | 55 | 0 | 1.0 | 6.0 | 0.03 | 0.18 | 0.18 | 93 | 1010.8 |
| 20260509182541 | 55 | 165 | 0.0 | 5.0 | 0.03 | 0.18 | 0.18 | 93 | 1010.8 |
| 20260509182039 | 55 | 239 | 1.0 | 4.0 | 0.02 | 0.17 | 0.17 | 93 | 1010.8 |
| 20260509181546 | 55 | 0 | 1.0 | 4.0 | 0.03 | 0.17 | 0.17 | 93 | 1010.8 |
| 20260509181039 | 55 | 142 | 0.0 | 6.0 | 0.03 | 0.17 | 0.17 | 93 | 1010.7 |
| 20260509180543 | 55 | 209 | 2.0 | 7.0 | 0.02 | 0.16 | 0.16 | 93 | 1010.5 |
| 20260509180045 | 55 | 160 | 2.0 | 7.0 | 0.02 | 0.16 | 0.16 | 92 | 1010.5 |
| 20260509175539 | 55 | 147 | 2.0 | 6.0 | 0.01 | 0.15 | 0.15 | 92 | 1010.4 |
| 20260509175042 | 55 | 140 | 2.0 | 6.0 | 0.01 | 0.15 | 0.15 | 92 | 1010.4 |